Preview of NWS' New Version of Forecast
This preview is not operational and should not be used for support decisions.

Regional Weather Roundup (RWR)

Issued by National Weather Service (NWS)

                            
000
ASUS45 KBOU 251110
RWRCO 

WEATHER ROUNDUP FOR COLORADO
NATIONAL WEATHER SERVICE DENVER/BOULDER CO
500 AM MDT THU APR 25 2019

NOTE: "FAIR" INDICATES FEW OR NO CLOUDS BELOW 12000 FEET WITH NO
SIGNIFICANT WEATHER AND/OR OBSTRUCTIONS TO VISIBILITY.

COZ001>005-013-030-031-251200-
...NORTHWEST COLORADO...
  
CITY           SKY/WX    TMP DP  RH WIND       PRES   REMARKS
CRAIG          FAIR      38  33  82 W3        30.17R                  
HAYDEN         FAIR      44  35  70 SW3       30.18R                  
MEEKER         FAIR      42  36  79 CALM      30.17R                  
RANGELY        FAIR      40  35  82 CALM      30.13S                  
RABBIT EARS PA NOT AVBL                                               
STEAMBOAT SPGS MOCLDY    43  36  77 E5        30.17R                  
WALDEN         CLOUDY    37  34  87 N14G21    30.21R                  
$$

COZ006>008-011-251200-
...WEST CENTRAL VALLEYS...
  
CITY           SKY/WX    TMP DP  RH WIND       PRES   REMARKS
GRAND JUNCTION FAIR      59  35  40 NE8       30.07R                  
MONTROSE       FAIR      44  31  60 SE7       30.12R                  
EAGLE          FAIR      40  36  86 E3        30.19R                  
RIFLE          FAIR      46  37  71 CALM      30.12R                  
DELTA          FAIR      49  33  55 CALM      30.09R                  
NUCLA          FAIR      45  30  57 SE5       30.14R                  
$$

COZ017>023-064>068-251200-
...SOUTHWEST COLORADO...
  
CITY           SKY/WX    TMP DP  RH WIND       PRES   REMARKS
DURANGO        FAIR      39  29  67 CALM      30.09S                  
CORTEZ         FAIR      38  30  73 CALM      30.10S                  
PAGOSA SPRINGS FAIR      37  29  74 CALM      30.16S                  
TELLURIDE      FAIR      36  30  80 SE7       30.24F                  
WOLF CREEK PAS FAIR      32  25  74 NW6       30.37S WCI  26          
$$

COZ009-010-012-014-032>034-037-058>063-251200-
...CENTRAL COLORADO...
  
CITY           SKY/WX    TMP DP  RH WIND       PRES   REMARKS
ASPEN          CLOUDY    40  30  67 SW3       30.18R                  
BUENA VISTA    FAIR      42  33  71 NW12      30.15S                  
COPPER MTN     NOT AVBL                                               
BERTHOUD PASS  MOCLDY    25  14  63 NW26G45   30.28R WCI   9          
COTTONWOOD PAS FAIR      43  27  52 NW7       30.22S                  
GUNNISON       FAIR      33  29  85 NE3       30.18S                  
GRANBY         FAIR      36  32  84 E3        30.20S                  
KREMMLING      CLOUDY    43  34  70 CALM      30.19S                  
LEADVILLE      FAIR      34  29  82 N16G28    30.23S WCI  24          
MONARCH PASS   FAIR      32  27  80 W16       30.41S WCI  21          
SALIDA         FAIR      43  30  61 CALM      30.22R                  
SUNLIGHT       FAIR      32  28  86 NW3       30.33S                  
WILKERSON PASS FAIR      32  25  74 N15G26    30.29F WCI  22          
$$

COZ069>075-251200-
...SAN LUIS VALLEY/SANGRE DE CRISTO MOUNTAINS...
  
CITY           SKY/WX    TMP DP  RH WIND       PRES   REMARKS
ALAMOSA        FAIR      35  30  82 CALM      30.13R                  
DEL NORTE      FAIR      41  29  62 W12       30.15S                  
LA VETA PASS   NOT AVBL                                               
SAGUACHE       FAIR      41  32  70 CALM      30.14R                  
$$

COZ035-036-038>040-251200-
...NORTHERN COLORADO FRONT RANGE...
  
CITY           SKY/WX    TMP DP  RH WIND       PRES   REMARKS
DENVER INTL AP CLOUDY    44  38  79 N8        30.16S                  
AURORA         CLOUDY    42  37  82 N8        30.18R                  
FRONT RANGE AP CLOUDY    45  39  80 N8        30.17R                  
ERIE MUNI ARPT CLOUDY    46  36  69 NE3       30.21S                  
BOULDER MUN AP MOCLDY    45  36  70 CALM      30.16S                  
CENTENNIAL     MOCLDY    44  37  76 NE5       30.18R                  
BROOMFIELD     CLOUDY    43  36  75 SE5       30.17S                  
FORT COLLINS   CLOUDY    44  36  73 CALM      30.15R                  
LONGMONT       MOCLDY    46  36  68 S3        30.18R                  
$$

COZ041-046-047-076>085-087-088-251200-
...PIKES PEAK/PALMER DIVIDE AND SOUTHERN FOOTHILLS...
  
CITY           SKY/WX    TMP DP  RH WIND       PRES   REMARKS
COLO. SPRINGS  CLOUDY    45  37  73 N20G31    30.16R                  
A. F. ACADEMY  DRIZZLE   41  40  95 N20G26    30.15R                  
SCHRIEVER AFB  NOT AVBL                                               
CHEYENNE MTN   NOT AVBL                                               
ELLICOTT         N/A    N/A N/A N/A N29G37    30.11R                  
FALCON         RAIN      39  37  94 N23G36    30.16R                  
FORT CARSON    FAIR      46  39  76 N31G44    30.08R SQUALL           
LIMON          CLOUDY    42  41  96 N24G36    30.11R                  
MONUMENT HILL  CLOUDY    36  34  93 N14G25    30.20R                  
CANON CITY     NOT AVBL                                               
WALSENBURG     NOT AVBL                                               
TRINIDAD       FAIR      44  34  67 W13       30.02R                  
$$

COZ042>045-048>051-090-091-251200-
...NORTHEAST COLORADO...
  
CITY           SKY/WX    TMP DP  RH WIND       PRES   REMARKS
GREELEY ARPT   CLOUDY    47  39  74 CALM      30.15R                  
AKRON          FAIR      41  39  93 N14       30.06S                  
BURLINGTON     CLOUDY    50  46  86 N32G45    30.01R                  
WRAY           CLOUDY    50  41  71 N14       30.02F                  
YUMA           NOT AVBL                                               
STERLING       CLOUDY    46  43  87 N14       30.07R                  
HOLYOKE        FAIR      46  43  87 NW9       30.03S                  
FORT MORGAN      N/A     45  37  72 NW12      30.11R                  
$$

COZ086-089-092>099-251200-
...SOUTHEAST COLORADO...
  
CITY           SKY/WX    TMP DP  RH WIND       PRES   REMARKS
PUEBLO         FAIR      52  42  69 N35G49    30.02R                  
LA JUNTA       FAIR      54  44  69 N32G47    29.99R                  
LAMAR          FAIR      43  36  76 W8        29.93R                  
SPRINGFIELD      N/A     44  35  70 W15       29.90R                  
$$